Weather History for Madrid, Spain

Change the Weather History Date:

Thursday, November 1, 2012

  Actual Average Record
Temperature  
Mean Temperature 48 °F -  
Max Temperature 59 °F 55 °F 75 °F (1996)
Min Temperature 37 °F 38 °F 32 °F (1996)
Degree Days  
Heating Degree Days 17    
Moisture  
Dew Point 44 °F    
Average Humidity 75    
Maximum Humidity 100    
Minimum Humidity 52    
Precipitation  
Precipitation 0.00 in 0.08 in - ()
Sea Level Pressure  
Sea Level Pressure 29.68 in    
Wind  
Wind Speed 11 mph ()    
Max Wind Speed 23 mph    
Max Gust Speed 37 mph    
Visibility 6.9 miles    
Events      
Averages and records for this station are not official NWS values.
T = Trace of Precipitation, MM = Missing Value Source: Averaged Metar Reports

Daily Weather History Graph

Daily Weather History Graph

Search for Another Location

Airport:

Trip Planner

Search our weather history database for the weather conditions in past years. The results will help you decide how hot, cold, wet, or windy it might be!

Date:

Astronomy

Nov. 01, 2012 Rise Set
Actual Time 7:44 AM CET 6:10 PM CET
Civil Twilight 7:16 AM CET 6:38 PM CET
Nautical Twilight 6:43 AM CET 7:11 PM CET
Astronomical Twilight 6:12 AM CET 7:42 PM CET
Moon 7:56 PM CET (11/1) 10:05 AM CET (11/1)
Length of Visible Light 11h 22m
Length of Day
10h 26m
Waning Gibbous, 94% of the Moon is Illuminated
Nov 1
Waning Gibbous
Nov 7
Last Quarter
Nov 13
New
Nov 20
First Quarter
Nov 28
Full

Hourly Weather History & Observations

Time (CET) Temp. Windchill Dew Point Humidity Pressure Visibility Wind Dir Wind Speed Gust Speed Precip Events Conditions
12:00 AM 48.2 °F - 42.8 °F 82% 29.59 in 6.2 mi SW 10.4 mph - N/A   Scattered Clouds
12:30 AM 48.2 °F - 41.0 °F 76% 29.59 in 6.2 mi SW 10.4 mph - N/A   Scattered Clouds
1:00 AM 46 °F - 40 °F 72% 29.62 in 19 mi SSW 9.2 mph - -   Scattered Clouds
1:00 AM 46.4 °F 42.4 °F 41.0 °F 81% 29.59 in 6.2 mi SSW 8.1 mph - N/A   Scattered Clouds
1:30 AM 46.4 °F 42.4 °F 42.8 °F 87% 29.59 in 6.2 mi SSW 8.1 mph - N/A   Scattered Clouds
2:00 AM 46.4 °F 41.9 °F 42.8 °F 87% 29.59 in 6.2 mi SSW 9.2 mph - N/A   Scattered Clouds
2:30 AM 44.6 °F 39.7 °F 42.8 °F 93% 29.59 in - SSW 9.2 mph - N/A   Clear
3:00 AM 46.4 °F 41.9 °F 42.8 °F 87% 29.59 in - SW 9.2 mph - N/A   Clear
3:30 AM 46.4 °F 41.5 °F 42.8 °F 87% 29.59 in 6.2 mi SW 10.4 mph - N/A   Scattered Clouds
4:00 AM 46.4 °F 41.5 °F 44.6 °F 93% 29.59 in 6.2 mi SW 10.4 mph - N/A   Scattered Clouds
4:30 AM 46.4 °F 41.1 °F 44.6 °F 93% 29.59 in 6.2 mi SW 11.5 mph - N/A   Scattered Clouds
5:00 AM 46.4 °F 41.1 °F 44.6 °F 93% 29.59 in 6.2 mi SW 11.5 mph - N/A   Scattered Clouds
5:30 AM 46.4 °F 41.9 °F 42.8 °F 87% 29.59 in 6.2 mi SW 9.2 mph - N/A   Scattered Clouds
6:00 AM 46.4 °F 42.4 °F 42.8 °F 87% 29.59 in 6.2 mi SSW 8.1 mph - N/A   Scattered Clouds
6:30 AM 44.6 °F 43.1 °F 42.8 °F 93% 29.59 in 6.2 mi NW 3.5 mph - N/A   Partly Cloudy
7:00 AM 40 °F - 37 °F 87% 29.66 in 6 mi NNE 3.5 mph - -   Mist
7:00 AM 41.0 °F 39.0 °F 41.0 °F 100% 29.62 in 5.6 mi NNE 3.5 mph - N/A   Partly Cloudy
7:30 AM 37.4 °F - 37.4 °F 100% 29.62 in 5.6 mi Variable 2.3 mph - N/A   Partly Cloudy
8:00 AM 39.2 °F - 37.4 °F 93% 29.62 in 5.0 mi East 2.3 mph - N/A   Partly Cloudy
8:30 AM 42.8 °F - 42.8 °F 100% 29.62 in 6.2 mi Variable 1.2 mph - N/A   Scattered Clouds
9:00 AM 48.2 °F - 44.6 °F 87% 29.65 in 6.2 mi WSW 11.5 mph - N/A   Scattered Clouds
9:30 AM 50.0 °F - 42.8 °F 76% 29.65 in 6.2 mi WSW 16.1 mph - N/A   Mostly Cloudy
10:00 AM 50.0 °F - 44.6 °F 82% 29.68 in 6.2 mi WSW 12.7 mph - N/A   Mostly Cloudy
10:30 AM 51.8 °F - 42.8 °F 71% 29.68 in 6.2 mi SW 13.8 mph 27.6 mph N/A   Mostly Cloudy
11:00 AM 53.6 °F - 44.6 °F 72% 29.68 in 6.2 mi SW 16.1 mph - N/A   Scattered Clouds
11:30 AM 55.4 °F - 42.8 °F 63% 29.68 in 6.2 mi SW 16.1 mph - N/A   Scattered Clouds
12:00 PM 55.4 °F - 44.6 °F 67% 29.68 in 6.2 mi SW 17.3 mph - N/A   Scattered Clouds
12:30 PM 55.4 °F - 44.6 °F 67% 29.71 in 6.2 mi SW 17.3 mph - N/A   Scattered Clouds
1:00 PM 56 °F - 43 °F 52% 29.68 in 19 mi SW 18.4 mph - -   Partly Cloudy
1:00 PM 57.2 °F - 42.8 °F 59% 29.68 in 6.2 mi SW 17.3 mph 36.8 mph N/A   Scattered Clouds
1:30 PM 59.0 °F - 44.6 °F 59% 29.68 in 6.2 mi SW 17.3 mph - N/A   Partly Cloudy
2:00 PM 59.0 °F - 44.6 °F 59% 29.68 in 6.2 mi WSW 18.4 mph - N/A   Partly Cloudy
2:30 PM 59.0 °F - 44.6 °F 59% 29.68 in 6.2 mi SW 18.4 mph - N/A   Partly Cloudy
3:00 PM 59.0 °F - 44.6 °F 59% 29.68 in 6.2 mi SW 19.6 mph - N/A   Partly Cloudy
3:30 PM 59.0 °F - 44.6 °F 59% 29.68 in 6.2 mi WSW 23.0 mph - N/A   Partly Cloudy
4:00 PM 59.0 °F - 44.6 °F 59% 29.68 in 6.2 mi WSW 19.6 mph - N/A   Partly Cloudy
4:30 PM 60.8 °F - 44.6 °F 55% 29.68 in 6.2 mi SW 18.4 mph 31.1 mph N/A   Partly Cloudy
5:00 PM 59.0 °F - 44.6 °F 59% 29.71 in 6.2 mi SW 19.6 mph - N/A   Partly Cloudy
5:30 PM 59.0 °F - 44.6 °F 59% 29.71 in 6.2 mi WSW 21.9 mph - N/A   Partly Cloudy
6:00 PM 59.0 °F - 44.6 °F 59% 29.74 in 6.2 mi SW 19.6 mph - N/A   Partly Cloudy
6:30 PM 57.2 °F - 46.4 °F 67% 29.77 in 6.2 mi SW 17.3 mph - N/A   Partly Cloudy
7:00 PM 56 °F - 45 °F 58% 29.77 in 19 mi WSW 17.3 mph - -   Scattered Clouds
7:00 PM 57.2 °F - 46.4 °F 67% 29.77 in 6.2 mi SW 17.3 mph - N/A   Partly Cloudy
7:30 PM 57.2 °F - 46.4 °F 67% 29.80 in 6.2 mi SW 16.1 mph - N/A   Partly Cloudy
8:00 PM 57.2 °F - 46.4 °F 67% 29.80 in 6.2 mi SW 15.0 mph - N/A   Partly Cloudy
8:30 PM 55.4 °F - 46.4 °F 72% 29.80 in 6.2 mi SW 13.8 mph - N/A   Partly Cloudy
9:00 PM 55.4 °F - 46.4 °F 72% 29.80 in 6.2 mi WSW 12.7 mph - N/A   Partly Cloudy
9:30 PM 55.4 °F - 46.4 °F 72% 29.80 in 6.2 mi WSW 13.8 mph - N/A   Partly Cloudy
10:00 PM 55.4 °F - 46.4 °F 72% 29.83 in 6.2 mi WSW 16.1 mph - N/A   Mostly Cloudy
10:30 PM 55.4 °F - 46.4 °F 72% 29.83 in 6.2 mi SW 17.3 mph - N/A   Mostly Cloudy
11:00 PM 55.4 °F - 46.4 °F 72% 29.83 in 6.2 mi SW 13.8 mph - N/A   Mostly Cloudy
11:30 PM 55.4 °F - 46.4 °F 72% 29.86 in 6.2 mi SW 12.7 mph - N/A   Mostly Cloudy